[Iaude] MPEC M05: 2022 MA [a=0.92,e=0.13,i=7.6,H=26.3]

mpec at marsden.cfa.harvard.edu mpec at marsden.cfa.harvard.edu
Fri Jun 17 02:07:42 EDT 2022


M.P.E.C. 2022-M05                                 Issued 2022 June 17, 06:06 UT

     The Minor Planet Electronic Circulars contain information on unusual
         minor planets and routine data on comets.  They are published
    on behalf of Division F of the International Astronomical Union by the
          Minor Planet Center, Smithsonian Astrophysical Observatory,
                          Cambridge, MA 02138, U.S.A.

             Prepared using the Tamkin Foundation Computer Network

                              MPC at CFA.HARVARD.EDU
            URL https://www.minorplanetcenter.net/    ISSN 1523-6714

                                    2022 MA                                     


Observations:
     K22M00A*HC2022 06 16.22591213 26 43.630-01 32 38.30         18.71GVEM005G96
     K22M00A HC2022 06 16.23105313 26 40.600-01 35 43.50         19.36GVEM005G96
     K22M00A HC2022 06 16.23619913 26 37.530-01 38 49.30         19.15GVEM005G96
     K22M00A HC2022 06 16.24134713 26 34.580-01 41 52.30         18.48GVEM005G96
     K22M00A mC2022 06 16.25445213 26 27.024-01 49 44.36         18.95GVEM005I52
     K22M00A mC2022 06 16.25464013 26 26.898-01 49 51.46         18.97GVEM005I52
     K22M00A mC2022 06 16.25482813 26 26.758-01 49 57.97         19.32GVEM005I52
     K22M00A mC2022 06 16.25501613 26 26.657-01 50 04.96         19.15GVEM005I52
     K22M00A KC2022 06 16.28484813 26 10.410-02 07 44.11               VEM005I52
     K22M00A KC2022 06 16.28541213 26 10.021-02 08 10.75         19.02GVEM005I52
     K22M00A KC2022 06 16.28597513 26 09.740-02 08 30.12         18.61GVEM005I52
     K22M00A KC2022 06 16.28653913 26 09.409-02 08 50.86         19.01GVEM005I52
     K22M00A KC2022 06 16.79523 13 23 22.91 -06 48 05.0          18.9 GVEM005221
     K22M00A KC2022 06 16.80149 13 23 19.20 -06 51 27.2          18.9 GVEM005221
     K22M00A KC2022 06 16.80725 13 23 15.75 -06 54 32.8          19.7 GVEM005221
     K22M00A KC2022 06 16.81209 13 23 12.78 -06 57 09.2          18.7 GVEM005221
     K22M00A KC2022 06 16.81674 13 23 10.01 -06 59 39.9          19.5 GVEM005221
     K22M00A KC2022 06 16.81906 13 23 11.52 -07 11 27.7          19.2 VqEM005C82
     K22M00A HC2022 06 16.82171 13 23 07.03 -07 02 18.0                VEM005M21
     K22M00A KC2022 06 16.82563 13 23 07.82 -07 14 58.6          18.5 VqEM005C82
     K22M00A KC2022 06 16.83345 13 23 00.12 -07 08 34.2          18.8 GVEM005M21
     K22M00A KC2022 06 16.85344013 22 55.06 -07 30 10.9          18.5 GVEM005104
     K22M00A KC2022 06 16.85748513 22 52.88 -07 32 19.5          18.4 GVEM005104
     K22M00A KC2022 06 16.86220513 22 50.38 -07 34 49.6                VEM005104
     K22M00A KC2022 06 16.87967913 22 46.71 -07 44 05.6          19.5 GXEM005958
     K22M00A KC2022 06 16.88284313 22 44.98 -07 45 46.2          19.3 GXEM005958
     K22M00A KC2022 06 16.88477013 22 39.81 -07 46 52.7          19.0 GVEM005203
     K22M00A KC2022 06 16.88600713 22 43.31 -07 47 26.3          19.3 GXEM005958
     K22M00A KC2022 06 16.88787 13 22 38.41 -07 48 32.4          18.8 GVEM005204
     K22M00A KC2022 06 16.89836713 22 31.25 -07 54 00.5                XEM005595
     K22M00A KC2022 06 16.89875113 22 32.73 -07 54 12.2          19.4 GVEM005203
     K22M00A KC2022 06 16.90003 13 22 32.27 -07 54 54.5                VEM005204
     K22M00A KC2022 06 16.90059713 22 30.15 -07 55 10.4          19.4 GXEM005595
     K22M00A KC2022 06 16.92362413 22 20.50 -08 07 10.6          19.1 GVEM005203
     K22M00A KC2022 06 16.94686113 22 33.026-08 09 10.15         19.2 GXEM005Y00
     K22M00A KC2022 06 16.95082913 22 30.634-08 11 14.78         19.3 GXEM005Y00
     K22M00A KC2022 06 16.95492413 22 28.193-08 13 22.76         19.7 GXEM005Y00

Observer details:
104 San Marcello Pistoiese.  Observers P. Bacci, M. Maestripieri.  Measurers
    P. Bacci, L. Tesi, G. Fagioli.  0.60-m F4 Reflector + CCD.
203 GiaGa Observatory.  Observers S. Foglia, G. Galli.  Measurer G. Galli.
    0.36-m f/5.76 Schmidt-Cassegrain + CCD.
204 Schiaparelli Observatory.  Observer L. Buzzi.  0.84-m f/3.5 reflector +
    CCD.
221 IAS Observatory, Hakos.  Observer D. Husar.  0.20-m f/2.8 reflector + CCD.
595 Farra d'Isonzo.  Observer E. Pettarin.  0.61-m f/4.5 reflector + CCD.
958 Observatoire de Dax.  Observer P. Dupouy.  0.50-m f/4.5 Reflector + CCD.
C82 Osservatorio Astronomico Nastro Verde, Sorrento.  Observer N. Ruocco.
    0.35 m f/6.3 Schmidt-Cassegrain + CCD.
G96 Mt. Lemmon Survey.  Observer A. Serrano.  Measurers E. J. Christensen, D.
    Fay, J. B. Fazekas, D. C. Fuls, A. R. Gibbs, A. D. Grauer, H. Groeller, J.
    K. Hogan, R. A. Kowalski, S. M. Larson, G. J. Leonard, D. Rankin, R. L.
    Seaman, A. Serrano, F. C. Shelly, K. W. Wierzchos.  1.5-m reflector + 10K
    CCD.
I52 Steward Observatory, Mt. Lemmon Station.  Observer D. Rankin.  Measurers
    E. J. Christensen, D. Fay, J. B. Fazekas, D. C. Fuls, A. R. Gibbs, A. D.
    Grauer, H. Groeller, J. K. Hogan, R. A. Kowalski, S. M. Larson, G. J.
    Leonard, D. Rankin, R. L. Seaman, A. Serrano, F. C. Shelly, K. W.
    Wierzchos.  1.0-m prime focus + CCD.
M21 Schiaparelli Southern Observatory, Hakos.  Observers A. Aletti, F.
    Bellini, L. Buzzi, G. Galli.  Measurer L. Buzzi.  0.36-m f/8.4 reflector +
    CCD.
Y00 SONEAR Observatory, Oliveira.  Observer C. Jacques.  0.45-m f/2.9 0.45-m
    f/2.9 reflector + CCD.

Orbital elements:
2022 MA                                                  Earth MOID = 0.0062 AU
Epoch 2022 Aug. 9.0 TT = JDT 2459800.5                  Veres                   
M 208.64879              (2000.0)            P               Q                  
n   1.12405723     Peri.   24.21902     -0.32144386     -0.93764217             
a   0.9161019      Node    84.75048     +0.84567199     -0.34711261             
e   0.1309212      Incl.    7.63423     +0.42604311     -0.01843923             
P   0.88           H   26.33          G   0.15           U   7                  
Residuals in seconds of arc
220616 G96  0.3-  0.0     220616 221  0.2+  0.1-    220616 203  0.1-  0.2+
220616 G96  0.1+  0.2+    220616 221  0.5+  0.2+    220616 958  1.3-  1.9-
220616 G96  0.4-  0.3-    220616 221  0.5-  0.3-    220616 204  0.1-  0.5+
220616 G96 (0.5+  1.9+)   220616 221  0.3-  1.4-    220616 595  0.2+  0.5-
220616 I52  0.1+  0.4+    220616 C82  0.9+  0.1+    220616 203  0.2+  0.4+
220616 I52  0.2-  0.0     220616 M21  0.6-  0.3+    220616 204  0.0   0.6+
220616 I52  0.7-  0.3+    220616 C82  0.1+  0.2-    220616 595  0.1+  0.5-
220616 I52  0.6-  0.0     220616 M21  0.2-  0.3+    220616 203  0.3+  0.3-
220616 I52  1.3+  6.6+    220616 104  0.2+  0.0     220616 Y00  0.3+  0.2+
220616 I52  0.1-  0.1+    220616 104  0.2-  0.2-    220616 Y00  0.0   0.1+
220616 I52  0.2+  0.8+    220616 104  0.1-  0.5-    220616 Y00  0.1+  0.4+
220616 I52  0.3-  0.1+    220616 958  1.0-  1.1-
220616 221  0.9-  0.3-    220616 958  1.5-  1.7-

Ephemeris:
2022 MA                  a,e,i = 0.92, 0.13, 8                   q = 0.7962
Date    TT    R. A. (2000) Decl.     Delta      r    Elong.  Phase     V
2022 05 18    23 58 26.2 +69 05 42   0.07027 0.9778    59.7   116.7    25.1
...
2022 06 02    21 49 40.9 +78 26 22   0.03327 1.0036    70.8   107.5    23.0
...
2022 06 10    14 56 15.6 +65 53 46   0.01561 1.0146    87.5    91.6    20.6
...
2022 06 16    13 28 36.6 +00 52 40   0.01301 1.0214   115.2    64.1    19.2
2022 06 17    13 22 14.9 -08 38 31   0.01434 1.0224   116.7    62.6    19.4
2022 06 18    13 16 53.6 -16 22 36   0.01599 1.0234   117.2    62.0    19.6
...
2022 06 24    12 57 41.3 -39 46 16   0.02910 1.0284   113.7    64.9    21.0
...
2022 07 02    12 49 12.4 -49 45 37   0.04890 1.0332   108.4    69.0    22.3
...
2022 07 17    12 52 43.8 -56 33 30   0.08552 1.0359   100.9    74.5    23.7

M. P. C. Staff               (C) Copyright 2022 MPC           M.P.E.C. 2022-M05




More information about the Iaude mailing list